Regional Weather Roundup
Issued by NWS

Home | Current Version | Previous Version | Graphics & Text | Print | Product List | Glossary On
Versions: 1 2 3 4 5 6 7 8 9 10 11 12 13 14 15 16 17 18 19 20 21 22 23 24 25 26 27
000
ASUS45 KBOU 220007
RWRCO

WEATHER ROUNDUP FOR COLORADO
NATIONAL WEATHER SERVICE DENVER/BOULDER CO
600 PM MDT MON AUG 21 2017

NOTE: "FAIR" INDICATES FEW OR NO CLOUDS BELOW 12000 FEET WITH NO
SIGNIFICANT WEATHER AND/OR OBSTRUCTIONS TO VISIBILITY.

COZ001>005-013-030-031-220100-
...NORTHWEST COLORADO...

CITY           SKY/WX    TMP DP  RH WIND       PRES   REMARKS
CRAIG          FAIR      85  26  11 VRB3      30.21S
HAYDEN         PTSUNNY   82  31  15 N9        30.25S
MEEKER         FAIR      82  32  16 W5        30.22S
RABBIT EARS PA FAIR      61  32  33 CALM      30.57S
STEAMBOAT SPGS FAIR      81  31  16 W8        30.26S
WALDEN         FAIR      75  27  16 NW12      30.39R
$$

COZ006>008-011-220100-
...WEST CENTRAL VALLEYS...

CITY           SKY/WX    TMP DP  RH WIND       PRES   REMARKS
GRAND JUNCTION FAIR      91  35  13 W10       30.07F
MONTROSE       FAIR      86  38  18 NW10      30.16S
EAGLE          FAIR      82  34  17 S10       30.24F
RIFLE          FAIR      88  35  15 E8        30.13F
DELTA          FAIR      88  37  16 E6        30.10R
NUCLA          FAIR      84  34  16 N12G20    30.21R
$$

COZ017>023-064>068-220100-
...SOUTHWEST COLORADO...

CITY           SKY/WX    TMP DP  RH WIND       PRES   REMARKS
DURANGO        PTSUNNY   69  45  41 NW16G23   30.28R
CORTEZ         FAIR      75  46  35 E25G37    30.20R
PAGOSA SPRINGS TSTM      61  51  68 W5        30.34F
TELLURIDE        N/A     67  38  34 S15       30.44R
WOLF CREEK PAS NOT AVBL
$$

COZ009-010-012-014-032>034-037-058>063-220100-
...CENTRAL COLORADO...

CITY           SKY/WX    TMP DP  RH WIND       PRES   REMARKS
ASPEN          CLOUDY    73  39  29 SE13G24   30.33R
BUENA VISTA    FAIR      60  49  65 NE3       30.40S
COPPER MTN     FAIR      54  39  58 S14       30.68F THUNDER
BERTHOUD PASS  FAIR      45  41  87 S14G23    30.72F THUNDER
COTTONWOOD PAS CLOUDY    61  36  39 W8        30.53F
GUNNISON       FAIR      69  41  36 SE7       30.38R
KREMMLING      FAIR      82  25  12 CALM      30.31S
LEADVILLE      CLOUDY    56  38  50 SW6       30.53R
SALIDA         CLOUDY    58  53  84 SE16      30.49R
SUNLIGHT       FAIR      61  30  31 N5        30.60F
WILKERSON PASS CLOUDY    54  34  47 E8        30.66R
$$

COZ069>075-220100-
...SAN LUIS VALLEY/SANGRE DE CRISTO MOUNTAINS...

CITY           SKY/WX    TMP DP  RH WIND       PRES   REMARKS
ALAMOSA        CLOUDY    69  42  37 NE15      30.32R
DEL NORTE      LGT RAIN  60  48  63 N18       30.40R
LA VETA PASS   NOT AVBL
SAGUACHE       RAIN      55  50  82 NW13G21   30.40S
$$

COZ035-036-038>040-220100-
...NORTHERN COLORADO FRONT RANGE...

CITY           SKY/WX    TMP DP  RH WIND       PRES   REMARKS
DENVER INTL AP PTSUNNY   83  44  25 NE8G20    30.19S
DMNS CITY PARK   N/A     83  39  21 N1G15     30.19S
AURORA         PTSUNNY   82  44  25 N13       30.22R
FRONT RANGE AP FAIR      82  43  24 N8        30.21R
ERIE MUNI ARPT FAIR      85  34  16 NE3       30.23R
BOULDER MUN AP FAIR      82  39  21 CALM      30.20R
CENTENNIAL     PTSUNNY   80  38  22 N10       30.23R
BROOMFIELD     PTSUNNY   82  39  21 NW6       30.23R
FORT COLLINS   FAIR      84  49  29 E12       30.18R
LONGMONT       FAIR      87  40  18 N3        30.19S
$$

COZ041-046-047-076>085-087-088-220100-
...PIKES PEAK/PALMER DIVIDE AND SOUTHERN FOOTHILLS...

CITY           SKY/WX    TMP DP  RH WIND       PRES   REMARKS
COLO. SPRINGS  PTSUNNY   79  42  26 NE15      30.25R
A. F. ACADEMY  PTSUNNY   77  39  25 N10       30.27R
SCHRIEVER AFB  FAIR      76  41  28 N12       30.25S
CHEYENNE MTN   FAIR      74  39  28 NW10      30.25S
ELLICOTT       FAIR     N/A N/A N/A NE12      30.22S
FALCON         FAIR      74  37  25 N6        30.31S
FORT CARSON    FAIR      78  47  34 NE9       30.21R
LIMON          FAIR      81  48  31 N16       30.18R
MONUMENT HILL  FAIR      73  37  27 N8        30.33S
CANON CITY     DRIZZLE   72  52  49 E7        30.19R
WALSENBURG     NOT AVBL
TRINIDAD       FAIR      82  48  30 E5        30.16S
$$

COZ042>045-048>051-090-091-220100-
...NORTHEAST COLORADO...

CITY           SKY/WX    TMP DP  RH WIND       PRES   REMARKS
GREELEY ARPT   FAIR      83  54  36 NE12      30.16R
AKRON          FAIR      80  55  42 NE14      30.14R
BURLINGTON     FAIR      84  66  54 N13       30.07R
WRAY           NOT AVBL
YUMA           FAIR      79  46  31 N15G24    30.10R
STERLING       FAIR      82  54  36 NE13      30.10S
HOLYOKE        FAIR      84  61  45 N14       30.08R
FORT MORGAN    FAIR      83  46  27 NE16      30.15R
$$

COZ086-089-092>099-220100-
...SOUTHEAST COLORADO...

CITY           SKY/WX    TMP DP  RH WIND       PRES   REMARKS
PUEBLO         FAIR      89  44  20 NE16G22   30.09R
LA JUNTA       FAIR      90  52  27 E7        30.05S
LAMAR          FAIR      89  55  31 S5        30.00S
SPRINGFIELD      N/A     82  62  50 S15       30.07S
$$




USA.gov is the U.S. government's official web portal to all federal, state and local government web resources and services.